Regional Weather Roundup
Issued by NWS

Home | Current Version | Previous Version | Graphics & Text | Print | Product List | Glossary On
Versions: 1 2 3 4 5 6 7 8 9 10 11 12 13 14 15 16 17 18 19 20 21 22 23 24 25 26 27 28 29 30 31 32 33 34 35 36 37 38 39 40 41 42 43 44 45 46 47 48 49 50
000
ASUS43 KMPX 221301
RWRMN
WEATHER ROUNDUP FOR MINNESOTA
NATIONAL WEATHER SERVICE TWIN CITIES/CHANHASSEN MN
700 AM CST WED NOV 22 2017


NOTE: "FAIR" INDICATES FEW OR NO CLOUDS BELOW 12,000 FEET WITH NO
SIGNIFICANT WEATHER AND/OR OBSTRUCTIONS TO VISIBILITY. N/A MEANS
CURRENT SKY AND/OR WEATHER CONDITIONS ARE NOT AVAILABLE.

MNZ060>063-068>070-221400-
   Twin Cities Metro

CITY           SKY/WX    TMP DP  RH WIND       PRES   REMARKS
TWIN CITIES    CLOUDY    16  11  80 SW3       30.32F
ST PAUL        CLOUDY    16  11  80 CALM      30.34F
CRYSTAL        CLOUDY    14   7  73 CALM      30.32S
BLAINE         CLEAR     14  10  85 S3        30.31S
LAKEVILLE      CLOUDY    10  10 100 SW3       30.32S
EDEN PRAIRIE   CLOUDY    13   9  84 SW5       30.32S WCI   5
SOUTH ST PAUL  CLOUDY    14  10  83 CALM      30.33S
LAKE ELMO      FAIR      12   9  85 CALM      30.33S
$$
MNZ001>005-007-008-013>017-022>024-027-028-221400-
   Northwest Minnesota

CITY           SKY/WX    TMP DP  RH WIND       PRES   REMARKS
BEMIDJI        CLOUDY     7   4  88 S5        30.16F WCI  -2
HALLOCK        CLOUDY    10   7  85 S8        30.13F WCI  -1
ROSEAU         CLOUDY    10   7  85 S8        30.13F WCI  -1
WARROAD        PTCLDY     9   5  85 S5        30.14F WCI   0
CROOKSTON      CLOUDY    12   9  85 S12       30.17F WCI  -2
FOSSTON        CLOUDY     7   3  85 S10       30.18R WCI  -8
DETROIT LAKES  CLOUDY    10   9  92 S7        30.20F WCI   0
MOORHEAD       PTCLDY    10   5  79 CALM      30.22F
PARK RAPIDS    CLOUDY     9   5  84 S7        30.18F WCI  -2
MAHNOMEN       FAIR       9   5  86 S9        30.19S WCI  -5
$$
MNZ006-009>011-018-025>026-221400-
   North Central Minnesota

CITY           SKY/WX    TMP DP  RH WIND       PRES   REMARKS
BAUDETTE       CLOUDY     7   4  87 S7        30.14F WCI  -5
FLAG ISLAND    CLOUDY    10   7  85 SW7       30.12F WCI   0
INTL FALLS       N/A      3  -2  79 CALM      30.18S
WASKISH        CLOUDY     7   5  92 CALM      30.16F
BIG FORK       PTCLDY     3   0  85 CALM      30.19S
LONGVILLE      CLOUDY    10   7  85 S3        30.21F
GRAND RAPIDS   CLOUDY    10   8  92 S6        30.23S WCI   0
CRANE LAKE     CLOUDY     5   3  92 CALM      30.22R
ORR            CLOUDY     3   0  85 CALM      30.16S
COOK           CLOUDY     1   0  92 CALM      30.19S
WALKER         FAIR       9   6  89 S5        30.19F WCI   0
$$
MNZ012-019>021-037-221400-
   Northeast Minnesota

CITY           SKY/WX    TMP DP  RH WIND       PRES   REMARKS
DULUTH         CLOUDY     9   6  88 W7        30.20F WCI  -2
ELY            CLOUDY     7   5  92 S3        30.17F
HIBBING        CLOUDY     2  -1  88 CALM      30.20S
EVELETH        CLOUDY     1  -2  85 CALM      30.20F
DULUTH HARBOR  CLOUDY    16  10  79 SW7       30.28F WCI   6
TWO HARBORS    CLEAR      9   3  78 CALM      30.21F
SILVER BAY     CLOUDY     9   7  92 CALM      30.21S
GRAND MARAIS     N/A     16  11  80 CALM      30.22F
G MARAIS ARPRT CLOUDY     7   1  78 CALM      30.12F
$$
MNZ029>031-032-039>041-046>048-054>057-064-221400-
   West Central Minnesota

CITY           SKY/WX    TMP DP  RH WIND       PRES   REMARKS
FERGUS FALLS   CLOUDY     9   7  92 S7        30.27F WCI  -3
WHEATON        CLOUDY    12   7  79 SE10      30.25F WCI  -1
MORRIS         CLOUDY     9   7  92 S6        30.25F WCI  -1
ALEXANDRIA     CLOUDY    12   9  87 S8        30.23F WCI   0
ELBOW LAKE     FAIR       8   6  89 S7        30.24F WCI  -3
WADENA         CLOUDY     9   5  85 S5        30.21F WCI   0
GLENWOOD       CLOUDY     9   7  92 S6        30.25F WCI  -1
APPLETON       CLOUDY    12   7  79 S6        30.27F WCI   3
BENSON           N/A      9   5  85 SW3       30.28F
ORTONVILLE     CLOUDY    10   7  85 MISG      30.25F
MADISON        CLOUDY    10   7  85 S7        30.27F WCI   0
WILLMAR        FAIR       9   7  92 SE3       30.29F
$$
MNZ033>034-036-042>043-049>051-058-059-221400-
   Central Minnesota

CITY           SKY/WX    TMP DP  RH WIND       PRES   REMARKS
ST CLOUD       CLOUDY    11   9  92 CALM      30.29S
SAUK CENTRE    FAIR       8   6  91 S5        30.26F WCI   0
PAYNESVILLE    CLOUDY     9   8  96 CALM      30.28F
AITKIN         CLOUDY     9   7  92 CALM      30.24R
PINE RIVER     CLOUDY     7   3  85 CALM      30.24F
BRAINERD       CLOUDY    10   6  84 S5        30.25S WCI   2
STAPLES        CLOUDY     9   5  85 S3        30.23F
LITTLE FALLS   PTCLDY    10   5  79 CALM      30.28S
LITCHFIELD     CLOUDY    12  10  92 CALM      30.30S
BUFFALO        CLOUDY    12   9  87 CALM      30.32S
MAPLE LAKE     CLOUDY    12  11  94 CALM      30.32R
HUTCHINSON     CLOUDY    10   8  91 CALM      30.32R
$$
MNZ037-044-045-052-053-221400-
   East Central Minnesota

CITY           SKY/WX    TMP DP  RH WIND       PRES   REMARKS
PRINCETON      CLOUDY     7   3  85 CALM      30.29S
MORA           CLOUDY    12   9  85 CALM      30.31S
CAMBRIDGE      CLOUDY    10   3  72 CALM      30.30S
RUSH CITY      CLOUDY    10   9  92 CALM      30.30S
MOOSE LAKE     CLOUDY     9   5  85 CALM      30.24F
HINCKLEY       FAIR      12  10  92 CALM      30.27F
CLOQUET        CLOUDY     9   7  92 SW3       30.22F
MCGREGOR       CLOUDY    12  10  92 SW3       30.25S
$$
MNZ071>073-080-081-089-090-097-098-221400-
   Southwest Minnesota

CITY           SKY/WX    TMP DP  RH WIND       PRES   REMARKS
MONTEVIDEO     CLOUDY    10   7  85 SW3       30.29F
GRANITE FALLS  CLOUDY     9   6  89 S7        30.31F WCI  -2
CANBY          CLOUDY    14   9  81 S3        30.27F
MARSHALL       CLOUDY    12   7  80 S7        30.29F WCI   1
REDWOOD FALLS  CLOUDY    11   5  77 SW5       30.31S WCI   3
OLIVIA         CLOUDY    10   7  85 CALM      30.30S
PIPESTONE      CLEAR      9   3  78 SW5       30.25F WCI   0
WINDOM         CLOUDY    10   0  61 CALM      30.29F
WORTHINGTON    CLOUDY    12   7  80 S6        30.29S WCI   3
JACKSON        CLOUDY    12   7  79 CALM      30.30S
SLAYTON        CLOUDY    11 -13  32 S7        30.28F WCI   1
$$
MNZ065>067-074>077-082>085-091>093-221400-
   South Central Minnesota

CITY           SKY/WX    TMP DP  RH WIND       PRES   REMARKS
MANKATO        CLOUDY    13  10  88 CALM      30.33S
NEW ULM        CLOUDY     9   5  85 CALM      30.32R
ST JAMES       CLOUDY    10   7  85 SW6       30.33R WCI   1
FAIRMONT       CLOUDY    11   7  84 SW6       30.33S WCI   1
GLENCOE        CLOUDY    13  11  92 CALM      30.31S
FARIBAULT      CLOUDY    12   9  85 CALM      30.32S
OWATONNA       CLOUDY    10   7  85 S3        30.31F
WASECA         CLOUDY    12  10  92 CALM      30.33F
ALBERT LEA     CLOUDY    12   9  85 CALM      30.31F
$$
MNZ078>079-086>088-094>096-221400-
   Southeast Minnesota

CITY           SKY/WX    TMP DP  RH WIND       PRES   REMARKS
ROCHESTER      CLOUDY    11   9  92 W5        30.30S WCI   3
RED WING       CLOUDY    12   7  79 CALM      30.33S
STANTON        CLOUDY    12   9  86 S3        30.32S
DODGE CENTER   CLOUDY     9   7  92 SW5       30.30S WCI   0
WINONA           N/A     18  12  79 N3        30.36R
PRESTON          N/A     11   8  87 W5        30.31R WCI   3
$$
ABBREVIATIONS USED IN REMARKS
   TC - TEMPERATURES IN CELSIUS
  WCI - WIND CHILL INDEX
   HX - HEAT INDEX
  VSB - VISIBILITY
$$




USA.gov is the U.S. government's official web portal to all federal, state and local government web resources and services.